Weather in Gryazi

Russia / Lipetsk Oblast     52˚29′46″N   39˚57′19″E
temp.,
°C
wind,
m/s
gust,
m/s
humid.,
%
clouds,
%
prec.,
mm/h
press.,
hPa
HPBL,
m
15 january, fri
fri1500:00−15˚wsw239233 0.0 100920
03:00−15˚wsw229235 0.0 101020
06:00−16˚ssw11973 0.0 101020
09:00−15˚sse119540 0.0 101020
12:00−11˚ne1291100 0.0 1011149
15:00−10˚n2293100 0.0 1010156
18:00−10˚nne3596100 0.8 1009217
21:00−10˚nnw3596100 1.1 1008192
16 january, sat
sat1600:00−11˚nnw3496100 0.5 1007150
03:00−12˚wnw3695100 0.6 1006165
06:00−13˚wnw3494100 0.0 100579
09:00−14˚wnw3593100 0.0 100589
12:00−12˚w589196 0.0 1006341
15:00−12˚w5109093 0.0 1006411
18:00−13˚w5119399 0.0 1008407
21:00−15˚w61193100 0.1 1009402
17 january, sun
sun1700:00−16˚wsw51094100 0.1 1011363
03:00−17˚w5994100 0.1 1012333
06:00−20˚wsw469882 0.0 1012121
09:00−20˚wsw369877 0.0 1014120
12:00−17˚w249415 0.0 1015222
15:00−16˚w229441 0.0 101544
18:00−19˚wnw229857 0.0 101720
21:00−21˚ne1110057 0.0 101820
18 january, mon
mon1800:00−21˚nne239998 0.0 101827
03:00−22˚ne229899 0.0 101920
06:00−22˚nne2297100 0.0 101933
09:00−22˚ne1296100 0.0 102022
12:00−19˚n2291100 0.0 1020225
15:00−18˚nne2392100 0.0 1019283
18:00−18˚n2298100 0.8 1019172
21:00−18˚nnw1298100 1.6 1019120
19 january, tue
tue1900:00−19˚n2298100 0.6 1019132
03:00−19˚nnw1298100 0.8 101942
06:00−20˚nnw2398100 0.1 1019127
09:00−19˚nnw1298100 0.3 102080
12:00−18˚nnw2292100 0.1 1020283
15:00−17˚nw2393100 0.1 1020323
18:00−20˚nnw239898 0.0 102125
21:00−20˚nnw229894 0.1 102224